DELTA 1 DEB, 10711

Orbit data source: Space-Track

DELTA 1 DEB, 10711 is space debris in SSO originally from a launch on Thu, 29 Jul 1976 UTC launched from the Air Force Western Test Range (AFWTR). Debris objects in space refer to the collection of defunct objects orbiting the Earth. Examples of debris include non-operational satellites, rocket bodies, and fragments generated from explosions, collisions, or faulty payload assembly.

Loading next visibility...
Identifier
10711, 1976-077AG
Orbit
SSO
Country
Flag of USUS
Related business
Manufacturer
Unknown
Mission
Spacecraft
Bus & Motor
Unknown
Mass
Unknown
Launch date (UTC)
1976-07-29 (49 years ago)
Launch vehicle
Unknown
Launch site
Air Force Western Test Range (AFWTR)
Object type
Payload
Rocket body
Debris
Shape & HBR
Unknown
Radar Cross Section
Small (<0.1 m²)

Expand to show TLE details & history
Last TLE update: 1 day ago

TLE from 1 day ago
0 DELTA 1 DEB
1 10711U 76077AG  25241.86178380 -.00000031  00000-0  13059-3 0  9998
2 10711 102.4528 220.5128 0063219 235.6558 194.3279 12.29240940202933
Epoch: 2025-08-29T20:40Z
TLE epoch observation values (Epoch: 2025-08-29T20:40:58.12Z)
Latitude
66.49357°
Longitude
-98.38302°
Altitude
1,612.446 km
Speed
7.048 km/s
True Right ascension
12h 40m 39s
True Declination
66° 22' 52"
Sunlit
Object was in daylight at epoch
Visualization orbit readout
Latitude
Unknown
Longitude
Unknown
Altitude
Unknown
Speed
Unknown
Apparent Right ascension
Unknown
Apparent Declination
Unknown
Sunlit
N/A
Visualization observer readout
Local Sidereal Time
16:41:37
Azimuth
Unknown
Elevation
Unknown
Doppler factor
Unknown
Orbital elements
Apogee altitude
1,600.282 km
Perigee altitude
1,500.038 km
Semi-major axis
7,928.297 km
Eccentricity
0.00632
Inclination
102.4528°
RAAN
220.5128°
Arg. of periapsis
235.6558°
True anomaly
194.14999°
Mean anomaly
194.3279°
Eccentric anomaly
194.23881°
Mean motion
3.07449 °/min
Orbital period
117.09 mins
BSTAR
0.00013059
Loading maneuver chart data...
Computing Atmospheric mass density...
Loading historical data...
Loading historical data...
Loading historical data...
Loading historical data...
Loading historical data...
Loading historical data...
Loading historical data...

Documentation

Showing up to 5 results
|